Flag for Guinea Weather past 2 weeks in Boké, Guinea

Now
81 °F

Partly cloudy.


Feels Like: 86 °F
Forecast: N/A
Wind: 5 mph from West

Location: Conakry / Gbessia

Current Time: Sep 19, 2014 at 8:06:51 PM

Latest Report: Sep 19, 2014 at 7:00 PM


Visibility: N/A

Pressure: 29.89 "Hg

Humidity: 84%

Dew point: 75 °F

Location of BokéLocation

Historic Weather in Boké — Graph

°F

Boké temperature yesterday

Maximum temperature yesterday: 82 °F (at 2:00 PM)
Minimum temperature yesterday: 75 °F (at 12:00 AM)
Average temperature yesterday: 79 °F

Past Weeks' High & Low Weather Summary

 TemperatureHumidityPressure
High86 °F (Sep 10, 3:00 PM)100% (Sep 6, 7:00 PM)30.01 "Hg (Sep 6, 7:00 PM)
Low72 °F (Sep 13, 9:00 PM)66% (Sep 10, 3:00 PM)29.80 "Hg (Sep 6, 4:00 PM)
Average79 °F89%29.91 "Hg
* Reported Sep 4 7:00 PM — Sep 19 7:00 PM, Boké, Weather by CustomWeather, © 2014

Note: Actual official high and low records may vary slightly from our data, if they occured in-between our weather recording intervals... More about our weather records

Advertising

Boké weather history for previous 24 hours

 ConditionsComfort  
Time TempWeatherWind HumidityBarometerVisibility
7:00 PM
Sep 19
81 °FPartly cloudy.5 mph84%29.89 "HgN/A
6:00 PM82 °FBroken clouds.7 mph79%29.86 "HgN/A
5:00 PM82 °FBroken clouds.7 mph79%29.86 "HgN/A
4:00 PM84 °FBroken clouds.7 mph74%29.86 "HgN/A
3:00 PM84 °FBroken clouds.9 mph74%29.89 "HgN/A
1:00 PM82 °FBroken clouds.7 mph79%29.92 "HgN/A
12:00 PM81 °FPartly sunny.5 mph89%29.95 "HgN/A
11:00 AM79 °FPartly sunny.2 mph94%29.95 "HgN/A
10:00 AM81 °FPartly sunny.2 mph84%29.95 "HgN/A
9:00 AM79 °FPartly sunny.2 mph89%29.95 "HgN/A
8:00 AM77 °FLight rain. Partly sunny.2 mph94%29.92 "Hg5 mi
7:00 AM77 °FPartly sunny.2 mph94%29.92 "HgN/A
6:00 AM77 °FPassing clouds.2 mph94%29.89 "HgN/A
5:00 AM77 °FPassing clouds.5 mph94%29.89 "HgN/A
3:00 AM75 °FPartly cloudy.7 mph100%29.86 "HgN/A
2:00 AM75 °FPassing clouds.7 mph100%29.89 "HgN/A
1:00 AM75 °FLight rain. Passing clouds.5 mph100%29.95 "Hg5 mi
12:00 AM75 °FLight rain. Passing clouds.No wind94%29.95 "Hg5 mi
11:00 PM
Sep 18
77 °FLight rain. Partly cloudy.5 mph94%29.95 "Hg5 mi
10:00 PM77 °FLight rain. Partly cloudy.7 mph94%29.92 "Hg5 mi
9:00 PM75 °FLight rain. Passing clouds.9 mph94%29.92 "Hg3 mi
8:00 PM75 °FLight rain. Passing clouds.7 mph100%29.92 "Hg3 mi
Weather by CustomWeather, © 2014

See weather overviewHow to use our weather pages